EST,Max TemperatureF,Mean TemperatureF,Min TemperatureF,Max Dew PointF,MeanDew PointF,Min DewpointF,Max Humidity, Mean Humidity, Min Humidity, Max Sea Level PressureIn, Mean Sea Level PressureIn, Min Sea Level PressureIn, Max VisibilityMiles, Mean VisibilityMiles, Min VisibilityMiles, Max Wind SpeedMPH, Mean Wind SpeedMPH, Max Gust SpeedMPH,PrecipitationIn, CloudCover, Events, WindDirDegrees
2012-12-1,42,39,36,38,33,28,96,80,70,30.51,30.45,30.42,10,8,2,8,5,,0.00,8,,36
2012-12-2,46,42,39,44,41,39,100,96,83,30.41,30.27,30.12,7,2,0,5,0,,0.07,7,Fog-Rain,155
2012-12-3,63,50,36,51,42,35,100,92,60,30.25,30.18,30.11,10,3,0,5,0,,0.01,4,Fog,325
2012-12-4,64,53,42,55,48,41,100,91,70,30.25,30.16,29.97,,,,5,0,,0.06,5,Rain,240
2012-12-5,54,44,33,52,36,18,100,67,41,30.26,30.06,29.91,10,10,10,18,5,29,0.08,5,Rain,318
2012-12-6,41,32,24,23,19,17,88,61,40,30.38,30.31,30.26,10,10,10,8,3,,0.00,0,,339
2012-12-7,39,30,21,40,34,20,100,95,86,30.28,30.12,30.01,10,4,1,5,0,,0.25,7,Rain,300
2012-12-8,50,44,39,47,44,39,100,96,87,30.01,29.94,29.87,10,3,0,5,0,,0.27,8,Fog-Rain,323
2012-12-9,46,40,35,46,40,36,100,91,73,30.23,30.12,29.99,10,5,0,9,2,,0.27,7,Fog-Rain,29
2012-12-10,54,49,44,54,50,43,100,99,93,29.96,29.65,29.55,10,2,0,4,0,,0.04,8,Fog,324
2012-12-11,51,44,33,52,36,31,100,72,54,30.20,29.89,29.58,10,10,3,16,9,25,0.03,7,Rain,333
2012-12-12,44,36,28,31,27,23,96,78,45,30.43,30.36,30.20,10,10,10,7,1,,0.01,0,,299
2012-12-13,46,35,24,29,24,22,96,75,37,30.47,30.40,30.33,10,10,8,6,2,,0.00,0,,328
2012-12-14,50,34,19,28,23,17,92,72,33,30.32,30.24,30.16,10,10,7,7,1,,0.00,0,,265
2012-12-15,46,34,23,34,29,22,96,80,56,30.33,30.25,30.19,10,10,8,5,1,,0.01,2,,85
2012-12-16,46,42,37,45,42,34,100,91,74,30.19,30.01,29.89,10,6,2,10,2,,0.37,8,Rain,45
2012-12-17,44,42,39,43,41,38,100,94,89,29.89,29.79,29.60,10,6,1,7,4,,0.26,8,Rain,40
2012-12-18,55,48,42,47,43,32,100,90,66,29.65,29.53,29.46,10,5,0,15,3,30,0.26,7,Fog-Rain,322
2012-12-19,48,41,30,32,27,25,82,58,44,30.15,29.88,29.67,10,10,10,20,7,28,0.00,1,,303
2012-12-20,46,36,26,44,30,24,93,78,55,30.21,30.07,29.71,10,10,5,9,2,18,0.18,3,Rain,100
2012-12-21,57,46,36,55,44,27,100,85,60,29.64,29.28,29.09,10,6,1,23,12,41,1.44,8,Rain,152
2012-12-22,39,37,35,32,23,18,89,58,41,29.85,29.60,29.35,10,10,9,22,9,33,0.00,7,Snow,290
2012-12-23,43,34,24,24,21,15,88,59,34,29.97,29.92,29.86,10,10,10,9,5,18,0.00,3,,284
2012-12-24,39,29,19,33,26,16,96,82,50,30.10,30.00,29.91,10,6,1,7,1,,0.00,4,Rain-Snow,92
2012-12-25,39,34,28,34,30,24,100,83,64,30.26,30.05,29.90,10,7,2,14,3,16,0.14,7,Rain,331
2012-12-26,37,30,24,34,27,19,93,84,59,30.28,29.96,29.49,10,6,0,17,6,32,0.88,6,Fog-Rain-Snow,52
2012-12-27,39,34,30,36,29,18,93,77,60,29.88,29.52,29.28,10,9,4,21,14,38,0.27,8,Rain,338
2012-12-28,39,32,24,23,21,19,88,65,53,30.09,30.03,29.90,10,10,10,12,7,21,0.00,3,,323
2012-12-29,32,28,25,31,28,23,100,89,75,30.04,29.68,29.52,10,5,0,12,2,20,0.00,7,Fog-Snow,350
2012-12-30,36,32,28,23,16,12,69,53,44,30.19,29.96,29.65,10,10,5,24,15,40,0.20,3,Rain-Snow,311
2012-12-31,37,31,25,25,20,12,67,60,52,30.21,30.08,29.91,10,10,10,7,2,20,0.00,4,,242